Location: Unspecified
(50.7693°N, 0.0000°E)
Time: 02:53:52
(UTC+00:00)

Transit 2A - Pass Details

Date: 04 July 2019
Orbit: 594 x 965 km, 66.7° (Epoch: 16 July)

Event Time Altitude Azimuth Distance (km) Brightness Sun altitude
Rises 07:28:32 0° 312° (NW) 3,370 8.9 30.7°
Reaches altitude 10° 07:31:58 10° 293° (WNW) 2,351 8.1 31.2°
Maximum altitude 07:35:07 16° 256° (WSW) 1,889 7.7 31.7°
Drops below altitude 10° 07:38:05 10° 220° (SW) 2,193 8.1 32.2°
Sets 07:41:09 0° 198° (SSW) 3,033 9.0 32.7°
